Miscellaneous Local Product
Issued by NWS North Platte, NE

Current Version | Previous Version | Text Only | Print | Product List | Glossary On
Versions: 1 2 3 4 5 6 7 8 9 10 11 12 13 14 15 16 17 18 19 20 21 22 23 24 25 26 27 28 29 30 31 32 33 34 35 36 37 38 39 40 41 42 43 44 45 46 47 48 49 50
487
AXUS43 KLBF 280210
MISLBF


WESTERN AND NORTH CENTRAL NEBRASKA HOURLY WEATHER ROUNDUP
NATIONAL WEATHER SERVICE NORTH PLATTE NE
800 PM CST MON FEB 27 2017

NOTE: "FAIR" INDICATES FEW OR NO CLOUDS BELOW 12,000 FEET WITH NO
SIGNIFICANT WEATHER AND/OR OBSTRUCTIONS TO VISIBILITY.

NOTE: STATIONS NOT REPORTING VARIABLES SUCH AS SKY/WEATHER OR
PRESSURE ARE PROVIDED BY RAWS AND APRS NETWORKS AND ARE NOT UNDER
NATIONAL WEATHER SERVICE QUALITY CONTROL.

...OBSERVATIONS IN AND NEAR THE EASTERN PANHANDLE OF NEBRASKA...

CITY           SKY/WX    TMP DP  RH WIND       PRES   REMARKS
PINE RIDGE     CLOUDY    34  28  79 NW5       29.65S WCI  30
CHADRON        LGT SNOW  32  28  85 S3        29.65S FOG
ALLIANCE       CLOUDY    30  22  72 N12       29.63R WCI  20
SIDNEY         CLOUDY    35  24  64 N17       29.61R WCI  25
CRESCENT LAKE    N/A     50  25  38 N12G30      N/A
$$

...OBSERVATIONS IN NORTHERN NEBRASKA AND FAR SOUTHERN SOUTH DAKOTA...

CITY           SKY/WX    TMP DP  RH WIND       PRES   REMARKS
WINNER         MOCLDY    36  29  75 SE9       29.66S WCI  29
VALENTINE      MOCLDY    34  28  79 N6        29.64R WCI  29
THEDFORD       CLEAR     38  30  74 SE5       29.58F WCI  34
AINSWORTH      CLEAR     32  30  93 E8        29.62F WCI  25
O`NEILL        CLEAR     36  31  85 E6        29.67S WCI  31
ORD            CLEAR     39  31  72 SE6       29.64F WCI  35
BROKEN BOW     CLEAR     30  26  85 CALM      29.62F
VALENTINE NWR    N/A     36  30  78 SE5         N/A  WCI  32
BUTTE            N/A     36  29  75 E9          N/A  WCI  29
HALSEY           N/A     40  29  64 SE6         N/A
CHAMBERS         N/A     35  27  74 CALM        N/A
EWING            N/A     38  33  81 CALM        N/A
$$

...OBSERVATIONS IN SOUTHWEST NEBRASKA AND FAR NORTHEAST COLORADO...

CITY           SKY/WX    TMP DP  RH WIND       PRES   REMARKS
HOLYOKE        FAIR      41  21  45 SE8       29.51S
IMPERIAL       CLOUDY    43  20  39 SE15      29.53F
OGALLALA       CLEAR     40  26  59 E8        29.54R WCI  34
NORTH PLATTE   CLEAR     36  23  59 SE10      29.57F WCI  28
MCCOOK         CLOUDY    46  21  37 SE10      29.57F
LEXINGTON      CLEAR     37  26  63 E8        29.61F WCI  31
STAPLETON        N/A     36  26  65 CALM        N/A
GOTHENBURG       N/A     38  22  53 E3          N/A
CALLAWAY         N/A     37  27  68 SE12        N/A  WCI  29
$$

...OBSERVATIONS IN CENTRAL LINCOLN COUNTY AREA...

CITY           SKY/WX    TMP DP  RH WIND       PRES   REMARKS
N.P. AIRPORT   CLEAR     36  23  59 SE10      29.57F WCI  28
N.P. SOUTHEAST   N/A     41  24  51 E3          N/A
N.P. HILLCREST   N/A     41  25  52 E12         N/A
$$

...SOME OBSERVATIONS FROM AROUND THE REGION...

CITY           SKY/WX    TMP DP  RH WIND       PRES   REMARKS
LARAMIE        LGT SNOW  21  17  84 CALM      29.63R FOG
CHEYENNE       CLOUDY    28  21  75 NW15G22   29.61R WCI  16
DENVER         CLOUDY    47   7  19 SW14      29.57R
AKRON          CLOUDY    45  11  25 W14       29.54R
SCOTTSBLUFF    CLOUDY    33  27  78 N9        29.64R WCI  25
RAPID CITY     CLOUDY    32  18  56 NE9       29.65R WCI  24
BISMARCK       CLOUDY    21  16  81 NE9       29.84R WCI  11
PIERRE         CLOUDY    37  27  67 NE13      29.70R WCI  29
SIOUX FALLS    CLOUDY    38  31  76 E6        29.76S WCI  33
OMAHA          PTCLDY    45  29  53 SE7       29.75S
GRAND ISLAND   CLEAR     45  40  82 SE10      29.68S
KANSAS CITY    CLOUDY    58  44  60 S12       29.77F
WICHITA        PTCLDY    56  44  64 SE12      29.71S
OKLAHOMA CITY  PTCLDY    60  58  92 S20       29.81R FOG
DALLAS         MOCLDY    72  63  73 SW7       29.87R
AMARILLO       PTCLDY    52  16  24 S12       29.80R
DODGE CITY     PTCLDY    53  21  28 S10       29.64F
HAYS             N/A     49  39  68 SE12      29.64
GOODLAND       CLOUDY    45  14  28 S12       29.56S
$$




USA.gov is the U.S. government's official web portal to all federal, state and local government web resources and services.